CZ-6A DEB, 61090

Orbit data source: Space-Track

CZ-6A DEB, 61090 is space debris in LEO originally from a launch on Tue, 06 Aug 2024 UTC launched from the Taiyaun Space Center, China (TSC). Debris objects in space refer to the collection of defunct objects orbiting the Earth. Examples of debris include non-operational satellites, rocket bodies, and fragments generated from explosions, collisions, or faulty payload assembly.

Loading next visibility...
Identifier
61090, 2024-140NG
Orbit
LEO
Country
Flag of CNCN / PRC
Related business
Manufacturer
SAST
Mission
Spacecraft
Bus & Motor
Unknown
Mass
Unknown
Launch date (UTC)
2024-08-06 (1 year ago)
Launch vehicle
Unknown
Launch site
Taiyaun Space Center, China (TSC)
Object type
Payload
Rocket body
Debris
Shape & HBR
Unknown shape, 0.1 m
Radar Cross Section
Small (<0.1 m²)

Expand to show TLE details & history
Last TLE update: 16 hours ago

TLE from 16 hours ago
0 CZ-6A DEB
1 61090U 24140NG  25354.73891653  .00003598  00000-0  58360-3 0  9998
2 61090  88.7544 275.5945 0132006 151.2420 209.6158 14.65257905 70123
Epoch: 2025-12-20T17:44Z
TLE epoch observation values (Epoch: 2025-12-20T17:44:02.388Z)
Latitude
0.00001°
Longitude
-79.97685°
Altitude
760.635 km
Speed
7.431 km/s
True Right ascension
18h 22m 22s
True Declination
0° 00' 00"
Sunlit
Object was in daylight at epoch
Visualization orbit readout
Latitude
Unknown
Longitude
Unknown
Altitude
Unknown
Speed
Unknown
Apparent Right ascension
Unknown
Apparent Declination
Unknown
Sunlit
N/A
Visualization observer readout
Local Sidereal Time
08:50:40
Azimuth
Unknown
Elevation
Unknown
Doppler factor
Unknown
Orbital elements
Apogee altitude
766.216 km
Perigee altitude
580.054 km
Semi-major axis
7,051.272 km
Eccentricity
0.0132
Inclination
88.7544°
RAAN
275.5945°
Arg. of periapsis
151.242°
True anomaly
208.87886°
Mean anomaly
209.6158°
Eccentric anomaly
209.24628°
Mean motion
3.66557 °/min
Orbital period
98.21 mins
BSTAR
0.0005836
Loading maneuver chart data...
Computing Atmospheric mass density...

Documentation

Showing up to 5 results
|